星链-36200(STARLINK-36200)

导读

STARLINK-36200是美国太空探索技术公司(SpaceX)于2025年12月14日发射的星链(Starlink)低轨卫星,隶属于SpaceX打造的全球卫星互联网星座项目。星链项目旨在通过数千颗低地球轨道卫星为全球提供高速、低延迟的互联网接入服务,重点覆盖地面网络难以抵达的偏远区域,同时兼顾商业、应急通信等多元应用。 作为星链星座持续扩展部署的新增卫星,STARLINK-36200将进一步提升星座的全球覆盖密度与服务容量,助力缩小数字鸿沟,但也延续了星链项目一直以来引发的,关于太空拥堵、天文观测干扰等领域的讨论与担忧。

基本信息
目录编号:
67101
目录名称:
STARLINK-36200
国际标识:
2025-298AC
轨道中心:
EARTH
卫星名称:
星链-36200
卫星全名:
星链-36200(STARLINK-36200)
卫星状态:
在轨 (已飞行181 天)
发射日期:
2025-12-14 UTC
国别 :
美国 (US)
星等 :
--
轨道信息
数据来源 国际轨道数据 AOE轨道数据
星历时间 2026-06-12T14:56:01+0800
23小时前
查看轨道信息
2026-06-11T06:00:00+0800
2天前
查看轨道信息
半长轴 6950.167km 6950.225km
偏心率 0.0003099 0.0003282
轨道倾角 70.001° 70.006°
近地点辐角 266.918° 266.445°
升交点赤经 136.090° 139.549°
平近点角 93.162° 253.869°
近地点 569.876km 569.806km
远地点 574.184km 574.37km
周期 96.106分钟 96.108分钟
每日圈数 14.983386 14.983198
详细信息
固有亮度:
5
最大亮度:
2.5
卫星平台:
Starlink V1.0
覆盖范围:
全球
运营商:
太空探索技术公司
运营商所在国:
美国
制造商(研发单位):
太空探索技术公司
制造商所在国:
美国
使用方式:
暂无
卫星简介
Starlink 计划是 SpaceX 推出的全球卫星互联网项目,通过发射低轨道卫星,为全球尤其是偏远地区提供高速、低延迟的互联网服务。自 2019 年起,Starlink 已部署数千颗卫星,旨在缩小全球数字鸿沟,推动互联网普及。该项目还为军事、航空等行业提供通信支持,带来广泛经济效益。
2D轨道图
3D轨道图
轨道高度分析图
轨道倾角分析图
轨道综合分析图
查看轨道综合分析图